Gwinn, MI

11:24 PM EDT on June 28, 2017 (GMT -0400)
Sawyer International

Weather History for KSAW - January, 2012

Change the Weather History Date:

Saturday, January 7, 2012

  Actual Average (KESC) Record (KESC)
Temperature  
Mean Temperature 26 °F -  
Max Temperature 33 °F 21 °F 47 °F (1949)
Min Temperature 21 °F 6 °F -19 °F (1968)
Degree Days  
Heating Degree Days 38    
Moisture  
Dew Point 21 °F    
Average Humidity 79    
Maximum Humidity 91    
Minimum Humidity 63    
Precipitation  
Precipitation 0.00 in - - ()
Sea Level Pressure  
Sea Level Pressure 29.84 in    
Wind  
Wind Speed 6 mph (NNW)    
Max Wind Speed 15 mph    
Max Gust Speed 22 mph    
Visibility 9 miles    
Events Snow    
Averages and records for this station are not official NWS values.
T = Trace of Precipitation, MM = Missing Value Source: NWS Daily Summary

Daily Weather History Graph

Daily Weather History Graph

Search for Another Location

Airport or City:

Trip Planner

Search our weather history database for the weather conditions in past years. The results will help you decide how hot, cold, wet, or windy it might be!

Date:

Astronomy

Jan. 07, 2012 Rise Set
Actual Time 8:32 AM EST 5:19 PM EST
Civil Twilight 7:57 AM EST 5:53 PM EST
Nautical Twilight 7:20 AM EST 6:31 PM EST
Astronomical Twilight 6:43 AM EST 7:08 PM EST
Moon 4:02 PM EST (1/7) 7:04 AM EST (1/7)
Length of Visible Light 9h 55m
Length of Day
8h 47m
Waxing Gibbous, 97% of the Moon is Illuminated
Jan 7
Waxing Gibbous
Jan 9
Full
Jan 16
Last Quarter
Jan 23
New
Jan 30
First Quarter

Hourly Weather History & Observations

Time (EST) Temp. Windchill Dew Point Humidity Pressure Visibility Wind Dir Wind Speed Gust Speed Precip Events Conditions
12:17 AM 31.8 °F 27.3 °F 24.6 °F 75% 29.58 in 10.0 mi SW 4.6 mph - N/A   Mostly Cloudy
12:37 AM 31.5 °F - 25.2 °F 78% 29.58 in 10.0 mi Calm Calm - N/A   Overcast
12:57 AM 32.0 °F - 25.7 °F 78% 29.58 in 10.0 mi Calm Calm - N/A   Overcast
1:17 AM 32.0 °F - 25.7 °F 78% 29.58 in 10.0 mi Calm Calm - N/A   Overcast
1:37 AM 32.5 °F 29.3 °F 25.9 °F 76% 29.58 in 10.0 mi SW 3.5 mph - N/A   Overcast
1:56 AM 32.5 °F 29.3 °F 26.1 °F 77% 29.60 in 10.0 mi NE 3.5 mph - N/A   Overcast
2:17 AM 32.2 °F 23.2 °F 29.3 °F 89% 29.61 in 5.0 mi North 11.5 mph - N/A   Overcast
2:37 AM 31.5 °F 22.3 °F 29.1 °F 91% 29.62 in 1.2 mi North 11.5 mph - N/A Snow Light Snow
2:56 AM 30.9 °F 20.7 °F 28.6 °F 91% 29.63 in 4.0 mi North 13.8 mph - N/A Snow Light Snow
3:17 AM 30.4 °F 21.0 °F 27.1 °F 88% 29.65 in 10.0 mi North 11.5 mph - N/A Snow Light Snow
3:37 AM 30.2 °F 20.2 °F 27.1 °F 88% 29.66 in 10.0 mi North 12.7 mph - N/A   Overcast
3:56 AM 29.8 °F 19.8 °F 27.0 °F 89% 29.66 in 7.0 mi North 12.7 mph - N/A Snow Light Snow
4:17 AM 29.3 °F 19.6 °F 25.7 °F 86% 29.67 in 5.0 mi North 11.5 mph - N/A Snow Light Snow
4:37 AM 28.9 °F 19.2 °F 24.6 °F 84% 29.68 in 5.0 mi NNW 11.5 mph 17.3 mph N/A Snow Light Snow
4:57 AM 28.4 °F 19.7 °F 23.7 °F 83% 29.69 in 10.0 mi NNW 9.2 mph - N/A   Overcast
5:17 AM 27.5 °F 18.6 °F 23.0 °F 83% 29.70 in 10.0 mi NNW 9.2 mph - N/A   Mostly Cloudy
5:37 AM 26.8 °F 17.7 °F 22.3 °F 83% 29.71 in 10.0 mi North 9.2 mph - N/A   Mostly Cloudy
5:57 AM 26.1 °F 16.8 °F 22.1 °F 85% 29.73 in 10.0 mi NNW 9.2 mph - N/A   Mostly Cloudy
6:50 AM 24.8 °F 14.0 °F 19.4 °F 80% 29.76 in 10.0 mi North 11.5 mph 17.3 mph N/A   Mostly Cloudy
7:50 AM 24.8 °F 15.3 °F 19.4 °F 80% 29.79 in 10.0 mi North 9.2 mph - N/A   Overcast
8:50 AM 24.8 °F 14.6 °F 19.4 °F 80% 29.82 in 10.0 mi North 10.4 mph - N/A   Overcast
10:50 AM 24.8 °F 16.9 °F 19.4 °F 80% 29.89 in 10.0 mi NNW 6.9 mph - N/A Snow Light Snow
11:50 AM 26.6 °F 17.5 °F 17.6 °F 69% 29.91 in 10.0 mi NNW 9.2 mph - N/A Snow Light Snow
12:50 PM 24.8 °F 12.4 °F 15.8 °F 69% 29.93 in 10.0 mi NNW 15.0 mph 21.9 mph N/A   Overcast
1:50 PM 24.8 °F 16.1 °F 17.6 °F 74% 29.95 in 7.0 mi NNW 8.1 mph - N/A Snow Light Snow
2:50 PM 24.8 °F 16.1 °F 15.8 °F 69% 29.97 in 10.0 mi NNW 8.1 mph - N/A   Overcast
3:50 PM 24.8 °F 14.6 °F 17.6 °F 74% 30.00 in 7.0 mi NNW 10.4 mph - N/A Snow Light Snow
4:50 PM 24.8 °F 14.0 °F 15.8 °F 69% 30.03 in 10.0 mi NW 11.5 mph 19.6 mph N/A Snow Light Snow
5:50 PM 23.0 °F 10.6 °F 14.0 °F 68% 30.05 in 10.0 mi NW 13.8 mph - N/A   Overcast
6:55 PM 23.0 °F 11.7 °F 12.2 °F 63% 30.07 in 10.0 mi WNW 11.5 mph - N/A   Overcast
7:50 PM 23.0 °F 15.8 °F 14.0 °F 68% 30.09 in 10.0 mi NW 5.8 mph - N/A   Overcast
8:55 PM 21.2 °F - 14.0 °F 74% 30.11 in 10.0 mi Calm Calm - N/A   Overcast
9:50 PM 21.2 °F - 15.8 °F 80% 30.12 in 10.0 mi Calm Calm - N/A   Overcast
10:17 PM 22.1 °F - 16.2 °F 78% 30.12 in 10.0 mi Calm Calm - N/A   Overcast
10:37 PM 22.1 °F - 16.3 °F 79% 30.13 in 10.0 mi Calm Calm - N/A   Overcast
10:57 PM 22.1 °F - 16.3 °F 79% 30.13 in 10.0 mi Calm Calm - N/A   Overcast
11:17 PM 22.5 °F - 15.8 °F 76% 30.14 in 10.0 mi Calm Calm - N/A   Overcast
11:37 PM 21.9 °F - 16.3 °F 79% 30.14 in 10.0 mi Calm Calm - N/A   Overcast
11:56 PM 21.9 °F - 16.2 °F 78% 30.14 in 10.0 mi Calm Calm - N/A   Overcast